Starlink 3541

operational
NORAD ID: 51854 Int'l Des: 2022-022 Owner: SPXS Country: US Constellation: starlink
LEOCIRCULAR

Über Starlink 3541

Beschreibung wird geladen...

Live-Position

3D-Globus wird geladen...

Nächste Überflüge

Höhenverlauf

Altitude vs Time

uPlot chart will show altitude changes over time

Zweizeiliger Elementsatz

1 51854U 22022C 26036.71497965 .00048465 00000-0 27669-2 0 9995
2 51854 53.2154 161.8863 0002356 178.6077 181.4924 15.12284921218207
Epoch: 5. Feb. 2026 • Age: 15 hours

Aktueller Status

Höhe 528.0 km
Geschwindigkeit 7.60 km/s
Subsatellitenpunkt 2.93°N, 77.24°E
Startdatum 3. März 2022
Alter 3.9 years
Typ internet

Technische Details

Klassifizierung Payload
Masse 297.00 kg
Trockenmasse 275.00 kg
Gesamtmasse 297.00 kg
Länge 0.20 m
Durchmesser 2.80 m
Spannweite 9.00 m
Form Box + pan
Hersteller SPXS
Bus-Typ Starlink
Phasenstatus In Orbit
Besitzer/Staat SPXS/US

Große Konstellationen

Loading constellations...